Chatham, MA

3:37 AM EDT on October 19, 2017 (GMT -0400)
Chatham Municipal

Weather History for KCQX - December, 2013

Change the Weather History Date:

Friday, December 6, 2013

  Actual Average Record
Temperature  
Mean Temperature 47 °F -  
Max Temperature 55 °F 44 °F 61 °F (1982)
Min Temperature 39 °F 32 °F 21 °F (1989)
Degree Days  
Heating Degree Days 18    
Moisture  
Dew Point 46 °F    
Average Humidity 93    
Maximum Humidity 100    
Minimum Humidity 82    
Precipitation  
Precipitation 0.31 in - - ()
Sea Level Pressure  
Sea Level Pressure 29.99 in    
Wind  
Wind Speed 8 mph (WSW)    
Max Wind Speed 13 mph    
Max Gust Speed 23 mph    
Visibility 4 miles    
Events Fog , Rain    
Averages and records for this station are not official NWS values.
T = Trace of Precipitation, MM = Missing Value Source: NWS Daily Summary

Daily Weather History Graph

Daily Weather History Graph

Search for Another Location

Airport or City:

Trip Planner

Search our weather history database for the weather conditions in past years. The results will help you decide how hot, cold, wet, or windy it might be!

Date:

Astronomy

Dec. 06, 2013 Rise Set
Actual Time 6:52 AM EST 4:09 PM EST
Civil Twilight 6:21 AM EST 4:40 PM EST
Nautical Twilight 5:46 AM EST 5:15 PM EST
Astronomical Twilight 5:13 AM EST 5:49 PM EST
Moon 9:54 AM EST (12/6) 8:39 PM EST (12/6)
Length of Visible Light 10h 19m
Length of Day
9h 16m
Waxing Crescent, 19% of the Moon is Illuminated
Dec 6
Waxing Crescent
Dec 9
First Quarter
Dec 17
Full
Dec 25
Last Quarter
Jan 1
New

Hourly Weather History & Observations

Time (EST) Temp. Windchill Dew Point Humidity Pressure Visibility Wind Dir Wind Speed Gust Speed Precip Events Conditions
12:12 AM 51.1 °F - 50.0 °F 96% 29.97 in 10.0 mi SSW 10.4 mph 19.6 mph N/A   Overcast
12:35 AM 51.1 °F - 48.9 °F 92% 29.97 in 2.0 mi SSW 12.7 mph 19.6 mph N/A   Overcast
12:40 AM 51.1 °F - 50.0 °F 96% 29.96 in 0.8 mi SSW 9.2 mph 19.6 mph N/A   Overcast
12:52 AM 51.1 °F - 50.0 °F 96% 29.97 in 0.5 mi SSW 10.4 mph 18.4 mph N/A Fog Fog
1:31 AM 51.1 °F - 50.0 °F 96% 29.97 in 0.2 mi SW 11.5 mph 17.3 mph N/A Fog Fog
1:52 AM 51.1 °F - 50.0 °F 96% 29.96 in 0.5 mi SSW 8.1 mph - N/A Fog Fog
2:52 AM 52.0 °F - 51.1 °F 97% 29.96 in 0.5 mi SW 9.2 mph 18.4 mph N/A Fog Fog
3:52 AM 51.1 °F - 50.0 °F 96% 29.94 in 0.5 mi SW 11.5 mph 16.1 mph N/A Fog Fog
4:52 AM 51.1 °F - 50.0 °F 96% 29.93 in 0.5 mi SW 9.2 mph 20.7 mph N/A Fog Fog
5:52 AM 51.1 °F - 50.0 °F 96% 29.94 in 1.0 mi SW 9.2 mph 23.0 mph N/A   Mist
6:09 AM 51.1 °F - 50.0 °F 96% 29.94 in 0.8 mi SW 10.4 mph - N/A   Mist
6:52 AM 51.1 °F - 50.0 °F 96% 29.94 in 0.8 mi SW 6.9 mph - N/A   Mist
7:09 AM 52.0 °F - 51.1 °F 97% 29.94 in 1.2 mi SW 9.2 mph 17.3 mph 0.00 in Rain Light Rain
7:20 AM 52.0 °F - 51.1 °F 97% 29.93 in 2.5 mi SW 11.5 mph 20.7 mph 0.00 in   Overcast
7:52 AM 52.0 °F - 51.1 °F 97% 29.94 in 1.8 mi SSW 8.1 mph - 0.01 in Rain Light Rain
8:12 AM 51.1 °F - 51.1 °F 100% 29.94 in 0.5 mi SW 9.2 mph - 0.00 in Fog , Rain Light Rain
8:37 AM 51.1 °F - 51.1 °F 100% 29.95 in 1.0 mi SW 8.1 mph 17.3 mph 0.02 in Rain Light Rain
8:52 AM 52.0 °F - 51.1 °F 97% 29.94 in 1.0 mi SW 9.2 mph - 0.02 in   Mist
9:17 AM 52.0 °F - 51.1 °F 97% 29.94 in 2.5 mi SW 9.2 mph 16.1 mph N/A   Overcast
9:52 AM 53.1 °F - 52.0 °F 96% 29.95 in 2.5 mi WSW 6.9 mph - 0.00 in Rain Light Rain
10:12 AM 54.0 °F - 53.1 °F 97% 29.95 in 1.2 mi West 3.5 mph - 0.00 in   Overcast
10:52 AM 55.9 °F - 55.0 °F 97% 29.95 in 1.0 mi WSW 5.8 mph - 0.00 in Rain Light Rain
11:22 AM 52.0 °F - 51.1 °F 97% 29.95 in 2.0 mi NW 6.9 mph - 0.01 in Rain Light Rain
11:43 AM 52.0 °F - 50.0 °F 93% 29.93 in 4.0 mi Variable 6.9 mph - 0.01 in   Overcast
11:52 AM 52.0 °F - 50.0 °F 93% 29.94 in 6.0 mi Variable 4.6 mph - 0.01 in   Overcast
12:26 PM 51.1 °F - 48.9 °F 92% 29.94 in 9.0 mi NNW 5.8 mph - 0.00 in   Overcast
12:52 PM 50.0 °F - 48.0 °F 93% 29.95 in 5.0 mi Variable 5.8 mph - 0.00 in   Overcast
1:32 PM 48.0 °F - 46.0 °F 93% 29.95 in 6.0 mi Variable 5.8 mph - 0.00 in Rain Light Rain
1:52 PM 48.9 °F - 46.9 °F 93% 29.97 in 10.0 mi Variable 3.5 mph - 0.00 in Rain Light Rain
2:03 PM 48.9 °F - 46.0 °F 90% 29.97 in 10.0 mi Variable 6.9 mph - 0.00 in Rain Light Rain
2:52 PM 46.9 °F - 44.1 °F 90% 29.98 in 10.0 mi North 8.1 mph - 0.01 in   Overcast
3:11 PM 46.9 °F - 44.1 °F 90% 29.98 in 10.0 mi Variable 6.9 mph - N/A   Overcast
3:52 PM 46.9 °F - 44.1 °F 90% 30.00 in 4.0 mi Variable 5.8 mph - 0.01 in Rain Light Rain
4:52 PM 46.0 °F 43.1 °F 43.0 °F 89% 30.02 in 10.0 mi Variable 5.8 mph - 0.00 in   Overcast
5:52 PM 45.0 °F 42.6 °F 43.0 °F 93% 30.01 in 10.0 mi NNE 4.6 mph - 0.02 in Rain Light Rain
6:52 PM 46.0 °F - 43.0 °F 89% 30.04 in 10.0 mi Calm Calm - 0.00 in   Overcast
7:52 PM 45.0 °F 42.6 °F 39.9 °F 82% 30.04 in 10.0 mi North 4.6 mph - 0.00 in   Overcast
8:52 PM 45.0 °F 42.6 °F 41.0 °F 86% 30.08 in 10.0 mi NNW 4.6 mph - 0.00 in Rain Light Rain
9:20 PM 39.9 °F 35.8 °F 36.0 °F 86% 30.07 in 2.0 mi North 5.8 mph - 0.09 in Rain Heavy Rain
9:31 PM 39.9 °F 35.8 °F 37.0 °F 89% 30.06 in 4.0 mi NNE 5.8 mph - 0.10 in Rain Light Rain
9:52 PM 39.9 °F 37.8 °F 37.0 °F 89% 30.08 in 7.0 mi Variable 3.5 mph - 0.12 in Rain Rain
10:11 PM 39.9 °F 36.7 °F 37.0 °F 89% 30.11 in 6.0 mi Variable 4.6 mph - 0.00 in Rain Light Rain
10:19 PM 39.9 °F 35.8 °F 37.9 °F 93% 30.11 in 1.8 mi Variable 5.8 mph - 0.06 in Rain Heavy Rain
10:28 PM 39.9 °F 33.4 °F 37.9 °F 93% 30.11 in 3.0 mi NNW 10.4 mph 19.6 mph 0.08 in Rain Light Rain
10:40 PM 39.0 °F 34.8 °F 37.0 °F 93% 30.10 in 5.0 mi Variable 5.8 mph - 0.09 in Rain Light Rain
10:52 PM 39.0 °F 33.4 °F 36.0 °F 89% 30.11 in 7.0 mi North 8.1 mph - 0.09 in Rain Light Rain
11:52 PM 39.0 °F 34.8 °F 37.0 °F 93% 30.07 in 4.0 mi Variable 5.8 mph - 0.02 in Rain Rain